Regional Weather Roundup
Issued by NWS

Home | Current Version | Previous Version | Graphics & Text | Print | Product List | Glossary On
Versions: 1 2 3 4 5 6 7 8 9 10 11 12 13 14 15 16 17 18 19 20 21 22 23 24 25 26 27 28 29 30 31 32 33 34 35 36 37 38 39 40 41 42 43 44 45 46 47 48 49 50
000
ASUS43 KMKX 190300
RWRWI

WISCONSIN REGIONAL WEATHER ROUNDUP
NATIONAL WEATHER SERVICE MILWAUKEE/SULLIVAN WI
1000 PM CDT SAT APR 18 2015

NOTE: "FAIR" INDICATES FEW OR NO CLOUDS BELOW 12,000 FEET WITH NO
SIGNIFICANT WEATHER AND/OR OBSTRUCTIONS TO VISIBILITY.

WIZ001-002-006>008-014>016-023>028-190400-
NORTHWEST WISCONSIN

CITY           SKY/WX    TMP DP  RH WIND       PRES   REMARKS
SUPERIOR ARPT  MOCLDY    37  32  81 NE12G24   30.06F WCI  30
ASHLAND        MOCLDY    33  31  92 CALM      30.04F
HAYWARD        CLOUDY    48  32  53 NE7       30.00F
SIREN          CLOUDY    52  34  49 E8        29.98S
CUMBERLAND     CLOUDY    55  30  38 E7        29.98F
RICE LAKE      CLOUDY    58  24  27 E12G18    30.00S
CHETEK         CLOUDY    58  25  29 E10G21    29.99S
LADYSMITH      CLOUDY    56  21  25 E8        30.03S
EAU CLAIRE     NOT AVBL
MENOMONIE      CLOUDY    60  29  30 E14       29.97S
NEW RICHMOND   CLOUDY    60  28  29 SE5       29.97R
OSCEOLA        RAIN      60  32  34 SE13      29.99R
$$

WIZ003>005-009-010-017-018-190400-
NORTH CENTRAL WISCONSIN

CITY           SKY/WX    TMP DP  RH WIND       PRES   REMARKS
MANITOWISH WTR MOCLDY    52  20  28 SE8       30.06S
ARBOR VITAE    HAZE      53  12  19 SE9       30.06F VSB 3/4
WOODRUFF       HAZE      53  12  19 SE9       30.06F VSB 3/4
RHINELANDER    MOCLDY    48  13  24 E10       30.08F
EAGLE RIVER    PTCLDY    50  11  21 SE12      30.08F
LAND O LAKES   PTCLDY    50  15  24 SE7       30.09F
PHILLIPS       CLOUDY    53  14  21 SE10      30.03F
TOMAHAWK       MOCLDY    50  12  21 CALM      30.07F
MEDFORD        CLOUDY    51  19  28 E13G18    30.03F
MERRILL        MOCLDY    50  16  25 E10       30.07S
$$

WIZ029-030-035-036-043>047-190400-
CENTRAL WISCONSIN

CITY           SKY/WX    TMP DP  RH WIND       PRES   REMARKS
WAUSAU         PTCLDY    51  14  22 E14G23    30.04F
MOSINEE        CLEAR     48  16  27 E14G20    30.06F
MARSHFIELD     PTCLDY    51  19  28 E15       30.02F
STEVENS POINT  PTCLDY    49  17  28 E12G17    30.06S
WAUPACA        CLEAR     51  23  32 NE9       30.08F
WAUTOMA        NOT AVBL
WISC RAPIDS    CLEAR     52  16  24 E12G20    30.04F
CAMP DOUGLAS   NOT AVBL
$$

WIZ011>013-019>022-031-037>040-048>050-190400-
NORTHEAST WISCONSIN

CITY           SKY/WX    TMP DP  RH WIND       PRES   REMARKS
ANTIGO         PTCLDY    46  18  31 E13G20    30.09F
SHAWANO        PTCLDY    50  28  42 E9        30.11S
OCONTO         CLEAR     48  28  46 NE6       30.11F
STURGEON BAY   CLEAR     48  25  40 E13       30.13F
GREEN BAY      CLEAR     47  33  58 NE13      30.09F
MANITOWOC      NOT AVBL
APPLETON       PTCLDY    48  27  43 NE9       30.07F
CLINTONVILLE   PTCLDY    46  21  36 E7        30.09F
OSHKOSH        CLEAR     49  28  44 NE10      30.06F
$$

WIZ032>034-041-042-053>061-190400-
SOUTHWEST WISCONSIN

CITY           SKY/WX    TMP DP  RH WIND       PRES   REMARKS
LA CROSSE      CLOUDY    62  26  25 SE8G17    29.95F
SPARTA         MOCLDY    57  17  20 E13       30.00R
VIROQUA        CLOUDY    56  29  34 E16       29.97F
BOSCOBEL       CLOUDY    63  30  28 NE8       29.96S
PRAIRIE DU CHI CLOUDY    65  27  23 E15       29.92R
PLATTEVILLE    CLOUDY    61  33  35 E12       29.95S
$$

WIZ056-057-062-063-064-067-068-190400-
SOUTH CENTRAL WISCONSIN

CITY           SKY/WX    TMP DP  RH WIND       PRES   REMARKS
REEDSBURG      PTCLDY    55  29  37 E7        30.01S
BARABOO/DELLS  PTCLDY    54  26  34 E14       30.02S
LONE ROCK      NOT AVBL
MINERAL POINT  MOCLDY    61  30  31 E15G21    29.97S
MADISON        MOCLDY    52  32  46 E9        30.03R
MIDDLETON      MOCLDY    57  29  34 E8        30.03R
WATERTOWN      CLEAR     48  31  50 E10       30.04R
MONROE         CLOUDY    55  36  47 E12       30.00R
JANESVILLE     PTCLDY    52  30  43 E10       30.02R
$$

WIZ051-052-058>065-066-070>072-190400-
SOUTHEAST WISCONSIN

CITY           SKY/WX    TMP DP  RH WIND       PRES   REMARKS
MILWAUKEE      PTCLDY    42  32  67 NE9       30.08S
WAUKESHA       CLEAR     46  30  53 NE10      30.06S
MILWAUKEE/TIMM CLEAR     45  30  57 NE7       30.08R
RACINE         CLEAR     41  33  73 N7        30.08S
BURLINGTON     CLEAR     44  32  62 NE5       30.05S
KENOSHA        CLEAR     43  34  70 NE6       30.05S
FOND DU LAC    CLEAR     48  25  40 E10       30.07R
SHEBOYGAN      CLEAR     45  30  55 NE14      30.08R
WEST BEND      CLEAR     45  28  53 E7        30.07R
JUNEAU         CLEAR     49  29  47 NE8       30.05R
$$

LSZ147-162-190400-
LAKE SUPERIOR

STATION/POSITION TIME  TEMP    WIND        PRES    WAVE
                       AIR SEA DIR/SP/G            HT/PER
                 (UTC) (F)     (DEG/KT/KT) (MB)    (FT/S)
DEVILS ISLAND    0200   38      70/ 18/ 21 1018.8F
PORT WING        0240   37      50/ 13/ 16 1017.6F
SAXON HARBOR     0200   37        CALM     1016.9F
$$

LMZ867-665-643>646-190400-
LAKE MICHIGAN

STATION/POSITION TIME  TEMP    WIND        PRES    WAVE
                       AIR SEA DIR/SP/G            HT/PER
                 (UTC) (F)     (DEG/KT/KT) (MB)    (FT/S)
CHAMBERS ISLAND  0200   46      40/ 10/ 13 1020.3S
NORTHPORT PIER   0200   49      60/ 13/ 16 1020.7R
SISTER BAY       0247   50     100/  7/ 16   N/A
KEWAUNEE LAKESHO 0200   44      30/ 14/ 19 1018.7F
SHEBOYGAN LAKESH 0200   43      10/ 17/ 18 1019.1R
PORT WASHINGTON  0200   49      30/  9/ 19 1019.0R
MILWAUKEE LAKESH 0200   43      20/ 18/ 22   N/A
KENOSHA   LAKESH 0200   44      10/ 17/ 21 1017.3R
$$

TC  - TEMPERATURE IN CELSIUS
VSB - VISIBILITY IN STATUTE MILES
WCI - WIND CHILL INDEX
HX  - HEAT INDEX



USA.gov is the U.S. government's official web portal to all federal, state and local government web resources and services.